sat.trackr.live / text

‹ back to catalog

STARLINK-1730

NORAD 46563 · 2020-070AH

PAYLOAD ACTIVE UNKNOWN

§ Identity

Operator
Country
US
Launch date
2020-10-06
Launch site
AFETR
Launch vehicle
Mass (kg)
RCS (m²)

Purposes: comms

External: N2YO · Heavens-Above · Gunter

§ Orbital elements

Epoch: 2026-05-25T02:36:13.498848Z

Period
92.52 min
Inclination
53.0249°
Eccentricity
0.0005900
Mean motion
15.56387436 rev/d
Perigee alt
394.1 km
Apogee alt
402.1 km
Semi-major
6,776.3 km
B*
1.1408e-3
RAAN
115.3436°
Arg perigee
49.1690°
Mean anomaly
310.9831°
Rev number
31,212

§ Raw data

STARLINK-17301 46563U 20070AH  26145.10848957  .00082370  00000+0  11408-2 0  99982 46563  53.0249 115.3436 0005900  49.1690 310.9831 15.56387436312127

JSON: /api/v1/satellites/46563 · /tle

For live sub-satellite position, see the globe view (requires WebGL).

§ Visibility from observer

Set your observer location to see the next 7 days of passes ≥ 10°. The values pass through the URL so the page stays shareable.

No JS? Fill the form by hand. The geolocation button needs JavaScript.